"TOA5","AWS1","CR1000","7964","CR1000.Std.14","CPU:AWS1_114.CR1","64363","TBL110"
"TIMESTAMP","RECORD","Wind_spd_WVc(1)","Wind_spd_WVc(2)","Air_Temp_Avg","Humidity_Avg","SW_upper_Wm2_Avg","Rain_Tot","Press_Avg","Issui_Tot","Depth_cm","SR50A_Raw","Quality","Ground_Temp_Avg(1)","Ground_Temp_Avg(2)","SW_lower_Wm2_Avg","Albedo_Avg","SWC_per(1)","SWC_per(2)","Period(1)","Period(2)"
"TS","RN","","","","","","","","","","","","","","","","","","",""
"","","WVc","WVc","Avg","Avg","Avg","Tot","Avg","Tot","Smp","Smp","Smp","Avg","Avg","Avg","Avg","Smp","Smp","Smp","Smp"
"2017-01-19 00:00:00",271357,0.259,147.7,-3.533,96.5,0,0,867.5545,0,95.6,2.239,192,1.846,2.694,0.2123593,0,51.55,58.97,33.68,35.44
"2017-01-19 00:10:00",271358,0.17,131.7,-3.551,96.8,0,0,867.4449,0,94.9,2.246,196,1.846,2.693,0.1251403,0,51.49,58.97,33.66,35.44
"2017-01-19 00:20:00",271359,0.064,88.4,-3.515,96.4,0,0,867.39,0,95.6,2.238,224,1.846,2.705,0.03412917,0,51.55,58.97,33.68,35.44
"2017-01-19 00:30:00",271360,0.05,110,-3.471,95.9,0,0,867.3353,0,95.6,2.238,196,1.846,2.705,0.1213482,0,51.55,58.97,33.68,35.44
"2017-01-19 00:40:00",271361,0.002,110.1,-3.458,95.5,0,0,867.3079,0,95.7,2.237,191,1.846,2.701,0.01896065,0,51.49,58.97,33.66,35.44
"2017-01-19 00:50:00",271362,0.117,108,-3.55,96.7,0,0,867.2383,0,95.3,2.241,190,1.846,2.696,0.1213482,0,51.55,58.97,33.68,35.44
"2017-01-19 01:00:00",271363,0.115,115.6,-3.613,98.2,0,0,867.0844,0,95.6,2.238,182,1.846,2.707,0.00379213,0,51.49,58.97,33.66,35.44
"2017-01-19 01:10:00",271364,0.044,115.7,-3.369,96,0,0,867.0844,0,95.5,2.238,188,1.846,2.707,0.1896065,0,51.55,58.97,33.68,35.44
"2017-01-19 01:20:00",271365,0.023,115.6,-3.329,95.2,0,0,867.2531,0,95.3,2.24,193,1.846,2.707,0.2275278,0,51.55,58.97,33.68,35.44
"2017-01-19 01:30:00",271366,0.22,26.31,-3.369,95.6,0,0,867.3373,0,94.1,2.254,196,1.846,2.71,0.2275278,0,51.55,58.97,33.68,35.44
"2017-01-19 01:40:00",271367,0.121,15,-3.655,99.3,0,0,867.3373,0,96.8,2.227,284,1.846,2.706,0.03033704,0,51.49,58.97,33.66,35.44
"2017-01-19 01:50:00",271368,0.385,304.1,-3.687,100,0,0,867.3373,0,95.7,2.238,219,1.846,2.702,0.04171343,0,51.55,59.03,33.68,35.45
"2017-01-19 02:00:00",271369,0.2,79.98,-3.589,100,0,0,867.3373,0,95.6,2.239,211,1.846,2.706,0.0379213,0,51.49,58.97,33.66,35.44
"2017-01-19 02:10:00",271370,0.305,184,-3.576,99,0,0,867.3373,0,95.5,2.239,209,1.846,2.708,0.03412917,0,51.55,58.97,33.68,35.44
"2017-01-19 02:20:00",271371,0.4,238.3,-3.402,95.3,0,0,867.369,0,95.5,2.239,197,1.846,2.707,0.2844098,0,51.55,59.03,33.68,35.45
"2017-01-19 02:30:00",271372,0.478,126.1,-3.358,93.6,0,0,867.4238,0.5,95.2,2.242,196,1.846,2.708,0.3867973,0,51.55,59.03,33.68,35.45
"2017-01-19 02:40:00",271373,0.495,319.9,-3.36,94.5,0,0,867.4069,0,94.7,2.246,187,1.846,2.711,0.2844098,0,51.55,59.03,33.68,35.45
"2017-01-19 02:50:00",271374,0.599,350.6,-3.209,92,0,0,867.3373,0,94.3,2.25,196,1.846,2.71,0.4778084,0,51.55,58.97,33.68,35.44
"2017-01-19 03:00:00",271375,0.289,26.56,-3.211,91.6,0,0,867.3311,0,94.3,2.25,186,1.846,2.708,0.2313199,0,51.55,59.03,33.68,35.45
"2017-01-19 03:10:00",271376,0.347,221.3,-3.288,93.4,0,0,867.1708,0,94.3,2.251,194,1.846,2.703,0.1933987,0,51.49,59.03,33.66,35.45
"2017-01-19 03:20:00",271377,0.397,225.2,-3.364,95.1,0,0,867.0887,0,95.2,2.242,195,1.846,2.715,0.09859539,0,51.49,58.97,33.66,35.44
"2017-01-19 03:30:00",271378,0.603,212.8,-3.432,96.1,0,0,867.1308,0,95.1,2.243,199,1.848,2.714,0.07205047,0,51.55,58.97,33.68,35.44
"2017-01-19 03:40:00",271379,1.217,307.3,-3.514,94.4,0,0,867.2678,0,94.3,2.252,185,1.847,2.705,0,0,51.49,59.03,33.66,35.45
"2017-01-19 03:50:00",271380,0.999,320.4,-3.488,88.2,0,0,867.3395,0,94.4,2.251,197,1.846,2.715,0.09859539,0,51.55,58.97,33.68,35.44
"2017-01-19 04:00:00",271381,0.426,3.435,-3.581,87.5,0,0,867.272,0,94,2.255,192,1.853,2.713,0,0,51.55,59.03,33.68,35.45
"2017-01-19 04:10:00",271382,0.054,172.3,-3.801,89.9,0,0,867.0655,0,93.6,2.261,187,1.866,2.722,0,0,51.55,58.97,33.68,35.44
"2017-01-19 04:20:00",271383,0.589,330.3,-3.888,90.2,0,0,866.8906,0,93.6,2.26,198,1.88,2.684,0.07205047,0,51.55,58.97,33.68,35.44
"2017-01-19 04:30:00",271384,0.448,23.54,-3.818,89.5,0,0,866.8526,0,93.7,2.259,184,1.882,2.679,0.1137639,0,51.55,59.03,33.68,35.45
"2017-01-19 04:40:00",271385,0.387,216.7,-3.95,89.9,0,0,866.783,0,93.5,2.262,192,1.886,2.671,0.1099718,0,51.55,58.97,33.68,35.44
"2017-01-19 04:50:00",271386,0.187,175.5,-3.932,88.7,0,0,866.5912,0,93.3,2.263,197,1.881,2.671,0.09480325,0,51.49,59.03,33.66,35.45
"2017-01-19 05:00:00",271387,0.483,274.3,-3.773,86.9,0,0,866.5786,0,92.9,2.267,195,1.871,2.672,0.5309005,0,51.55,59.03,33.68,35.45
"2017-01-19 05:10:00",271388,0.497,236.8,-3.958,88.6,0,0,866.5765,0,92.9,2.268,190,1.879,2.673,0.3716367,0,51.55,59.03,33.68,35.45
"2017-01-19 05:20:00",271389,0.568,286.8,-3.92,89.2,0,0,866.5596,0,94.3,2.253,196,1.881,2.685,0.5423054,0,51.55,59.03,33.68,35.45
"2017-01-19 05:30:00",271390,0.918,311,-3.828,86,0,0,866.5786,0,93.8,2.258,190,1.879,2.697,0.5688639,0,51.55,59.03,33.68,35.45
"2017-01-19 05:40:00",271391,0.519,297.3,-4.221,92.1,0,0,866.5786,0,93.5,2.264,190,1.89,2.696,0.07205726,0,51.55,58.97,33.68,35.44
"2017-01-19 05:50:00",271392,0.755,252.7,-4.505,99.1,0,0,866.5786,0,93.4,2.264,186,1.875,2.705,0,0,51.55,59.03,33.68,35.45
"2017-01-19 06:00:00",271393,1.253,277.7,-4.463,99.2,0,0,866.5786,0,94.6,2.252,214,1.867,2.707,0,0,51.55,59.03,33.68,35.45
"2017-01-19 06:10:00",271394,1.146,275.2,-4.517,99.4,0,0,866.5786,0,95,2.249,198,1.88,2.71,0,0,51.55,59.03,33.68,35.45
"2017-01-19 06:20:00",271395,0.728,193,-4.619,100,0,0,866.4542,0,94.9,2.25,198,1.863,2.711,0,0,51.6,59.03,33.69,35.45
"2017-01-19 06:30:00",271396,0.838,171.8,-4.68,100,0,0,866.3235,0,94.9,2.251,199,1.878,2.713,0,0,51.55,59.03,33.68,35.45
"2017-01-19 06:40:00",271397,0.983,168.6,-4.672,98.5,0,0,866.2814,0,94.7,2.252,198,1.867,2.71,0,0,51.55,59.03,33.68,35.45
"2017-01-19 06:50:00",271398,0.763,170.5,-4.686,93.7,0,0,866.0849,0,94.8,2.251,200,1.87,2.711,0.1630893,0,51.55,59.03,33.68,35.45
"2017-01-19 07:00:00",271399,0.789,183.3,-4.616,89.6,0,0,866.0779,0,94.7,2.252,201,1.856,2.71,1.369192,0,51.55,59.03,33.68,35.45
"2017-01-19 07:10:00",271400,0.363,227.5,-4.728,89.3,0.4209077,0,866.0802,0,94.5,2.255,196,1.852,2.714,3.337697,7.486,51.55,59.03,33.68,35.45
"2017-01-19 07:20:00",271401,0.143,286,-4.864,90.6,1.286382,0,866.0931,0,94.4,2.257,203,1.882,2.707,5.56815,4.806,51.55,59.03,33.68,35.45
"2017-01-19 07:30:00",271402,0.351,347.4,-5.147,92.4,2.765534,0,866.1188,0,94.4,2.258,213,1.906,2.696,7.646745,2.858,51.55,59.03,33.68,35.45
"2017-01-19 07:40:00",271403,0.141,19.03,-5.347,94.1,3.61537,0,866.1805,0,94.3,2.26,209,1.915,2.698,9.221149,2.564,51.55,59.03,33.68,35.45
"2017-01-19 07:50:00",271404,0.126,95.8,-5.619,94,5.936496,0,866.1479,0,94.6,2.257,226,1.918,2.698,13.36717,2.253,51.55,59.03,33.68,35.45
"2017-01-19 08:00:00",271405,0.365,347.1,-5.545,95.8,7.431663,0,866.1467,0,94.5,2.258,225,1.926,2.704,16.09875,2.176,51.55,59.03,33.68,35.45
"2017-01-19 08:10:00",271406,0.65,278.6,-5.313,96,10.14248,0,866.159,0,94.3,2.259,243,1.93,2.709,20.18446,2.014,51.55,59.03,33.68,35.45
"2017-01-19 08:20:00",271407,0.502,294,-5.269,93.3,16.23664,0,866.1297,0,94.3,2.258,219,1.93,2.709,28.99648,1.787,51.55,59.03,33.68,35.45
"2017-01-19 08:30:00",271408,0.807,268.9,-5.173,93.8,19.86027,0,866.0514,0.5,94.3,2.258,224,1.933,2.711,33.36674,1.684,51.55,59.03,33.68,35.45
"2017-01-19 08:40:00",271409,0.954,254.7,-5.141,94.2,23.03141,0,866.0465,0,94,2.261,200,1.934,2.713,37.15273,1.613,51.55,59.03,33.68,35.45
"2017-01-19 08:50:00",271410,0.437,208.7,-5.013,94.8,22.31541,0,865.9445,0,94,2.261,194,1.934,2.715,35.9958,1.614,51.55,59.03,33.68,35.45
"2017-01-19 09:00:00",271411,0.386,236.5,-4.887,94.4,41.99092,0,865.9702,0,93.9,2.261,188,1.921,2.689,66.25599,1.58,51.55,59.03,33.68,35.45
"2017-01-19 09:10:00",271412,0.715,236.3,-4.771,92.5,38.25333,0,865.921,0,94,2.261,192,1.895,2.701,59.12056,1.548,51.6,59.03,33.69,35.45
"2017-01-19 09:20:00",271413,0.702,257.7,-4.785,90.6,55.19415,0,865.9696,0,93.9,2.26,196,1.89,2.715,85.77266,1.549,51.55,59.03,33.68,35.45
"2017-01-19 09:30:00",271414,0.706,279.3,-4.662,89.6,56.22354,0,865.9185,0,93.9,2.261,195,1.89,2.74,87.6558,1.558,51.55,59.03,33.68,35.45
"2017-01-19 09:40:00",271415,0.734,286.5,-4.728,90,47.90514,0,865.8789,0,93.9,2.261,195,1.897,2.74,73.39442,1.528,51.55,59.03,33.68,35.45
"2017-01-19 09:50:00",271416,0.505,128.8,-4.698,90.7,48.18638,0,865.8467,0,93.8,2.261,195,1.902,2.73,74.76065,1.55,51.55,59.03,33.68,35.45
"2017-01-19 10:00:00",271417,0.447,215.5,-4.644,87.9,63.62266,0,865.8316,0,93.6,2.262,189,1.9,2.714,97.53121,1.531,51.55,59.03,33.68,35.45
"2017-01-19 10:10:00",271418,0.27,236.5,-4.256,84.6,91.62914,0,865.8228,0,93.6,2.26,188,1.878,2.717,146.287,1.595,51.6,59.03,33.69,35.45
"2017-01-19 10:20:00",271419,0.618,279.9,-3.995,82.1,97.47701,0,865.8206,0,93.6,2.261,190,1.84,2.685,152.9047,1.564,51.6,59.03,33.69,35.45
"2017-01-19 10:30:00",271420,0.526,167.6,-3.903,82.7,103.9077,0,865.681,0,93.4,2.261,189,1.839,2.675,177.9084,1.695,51.55,59.03,33.68,35.45
"2017-01-19 10:40:00",271421,0.387,332,-3.766,83.2,109.3887,0,865.5566,0,93.5,2.261,188,1.892,2.666,167.5683,1.54,51.6,59.03,33.69,35.45
"2017-01-19 10:50:00",271422,0.752,339,-4.164,82,82.17966,0,865.3985,0,93.5,2.263,176,1.89,2.665,131.2954,1.573,51.6,59.03,33.69,35.45
"2017-01-19 11:00:00",271423,0.514,320.3,-4.167,82,99.59077,0,865.3142,0,93.3,2.265,184,1.89,2.664,145.2615,1.48,51.6,58.97,33.69,35.44
"2017-01-19 11:10:00",271424,0.761,312.5,-3.919,82.1,125.4697,0,865.1393,0,93.2,2.265,185,1.886,2.62,199.6217,1.567,51.6,59.03,33.69,35.45
"2017-01-19 11:20:00",271425,0.484,350.4,-4.01,84.4,105.3282,0,864.8683,0,93.2,2.265,189,1.872,2.606,176.9095,1.649,51.6,59.03,33.69,35.45
"2017-01-19 11:30:00",271426,0.503,308.8,-4.197,85.1,100.9567,0,864.5602,0,93.1,2.266,185,1.843,2.571,153.3022,1.52,51.55,59.03,33.68,35.45
"2017-01-19 11:40:00",271427,0.564,291.1,-3.949,84.7,111.2782,0,864.3612,0,92.9,2.267,176,1.795,2.555,172.6065,1.535,51.55,59.03,33.68,35.45
"2017-01-19 11:50:00",271428,0.426,286.9,-3.874,83.4,86.62246,0,864.2137,0,93.1,2.266,177,1.767,2.548,127.2864,1.466,51.55,59.03,33.68,35.45
"2017-01-19 12:00:00",271429,0.649,321.7,-4.131,82.6,93.11584,0,864.063,0,93,2.267,172,1.747,2.536,138.3019,1.479,51.55,59.03,33.68,35.45
"2017-01-19 12:10:00",271430,0.412,9.33,-3.736,81,140.6675,0,863.8136,0,92.8,2.268,171,1.773,2.566,239.1896,1.67,51.55,59.03,33.68,35.45
"2017-01-19 12:20:00",271431,0.522,289.9,-3.646,81.5,172.8389,0,863.489,0,92.8,2.268,171,1.843,2.635,273.582,1.544,51.6,59.03,33.69,35.45
"2017-01-19 12:30:00",271432,0.442,199.6,-3.843,79.66,193.397,0,863.2382,0,92.5,2.269,171,1.882,2.663,263.1374,1.364,51.6,59.03,33.69,35.45
"2017-01-19 12:40:00",271433,0.532,280.5,-3.285,78.38,196.4046,0,863.2319,0,92.5,2.269,172,1.887,2.666,239.4104,1.229,51.6,59.03,33.69,35.45
"2017-01-19 12:50:00",271434,0.42,307.6,-3.182,78.57,233.5267,0,863.2754,0,92.4,2.267,172,1.887,2.668,284.0624,1.241,51.6,58.97,33.69,35.44
"2017-01-19 13:00:00",271435,0.475,302,-2.899,77.52,250.9563,0,863.1652,0,92.5,2.268,171,1.855,2.707,302.8447,1.244,51.6,59.03,33.69,35.45
"2017-01-19 13:10:00",271436,0.471,291.3,-2.828,78.73,296.2719,0,863.118,0,92.3,2.269,172,1.781,2.639,288.2201,1.013,51.6,59.03,33.69,35.45
"2017-01-19 13:20:00",271437,0.5,326.3,-3.191,80.5,140.788,0,863.2294,0,92.5,2.27,170,1.737,2.6,146.1642,1.132,51.55,59.03,33.68,35.45
"2017-01-19 13:30:00",271438,0.267,282.4,-3.756,83.9,57.37531,0,863.2704,0,92.4,2.272,171,1.735,2.587,68.1713,1.186,51.6,59.03,33.69,35.45
"2017-01-19 13:40:00",271439,0.246,310.5,-3.556,84.8,145.0912,0,863.1395,0,92.3,2.272,170,1.751,2.596,169.2723,1.194,51.6,59.03,33.69,35.45
"2017-01-19 13:50:00",271440,0.37,328,-3.626,85.6,105.6502,0,862.9014,0,92.3,2.272,172,1.756,2.627,127.1659,1.221,51.6,59.03,33.69,35.45
"2017-01-19 14:00:00",271441,0.398,310.2,-3.565,86.1,76.3026,0,863.0468,0,92.3,2.272,171,1.784,2.649,101.9236,1.337,51.55,59.03,33.68,35.45
"2017-01-19 14:10:00",271442,0.409,310.4,-3.611,86.1,73.74004,0,862.9393,0,92.2,2.274,172,1.798,2.586,95.65947,1.297,51.6,59.03,33.69,35.45
"2017-01-19 14:20:00",271443,0.28,330.5,-3.795,86.8,67.38477,0,862.8867,0,92.1,2.275,170,1.798,2.578,86.35993,1.287,51.6,59.03,33.69,35.45
"2017-01-19 14:30:00",271444,0.345,323.5,-3.705,87.1,67.80924,0,862.8572,0,92.2,2.274,172,1.798,2.576,89.21346,1.316,51.6,59.03,33.69,35.45
"2017-01-19 14:40:00",271445,0.336,303.7,-3.758,87.4,77.40307,0,862.8572,0,92,2.276,171,1.798,2.576,101.7076,1.316,51.55,59.03,33.68,35.45
"2017-01-19 14:50:00",271446,0.459,288.2,-3.77,87.3,75.99436,0,862.9688,0,91.9,2.277,170,1.807,2.585,100.532,1.324,51.55,59.03,33.68,35.45
"2017-01-19 15:00:00",271447,0.345,276.8,-3.913,87.6,52.03773,0,863.1078,0,91.9,2.278,170,1.841,2.621,70.86102,1.362,51.55,59.03,33.68,35.45
"2017-01-19 15:10:00",271448,0.634,286.1,-4.192,87.6,38.18512,0,863.1264,0,91.9,2.28,172,1.861,2.634,51.2787,1.342,51.55,59.08,33.68,35.47
"2017-01-19 15:20:00",271449,0.596,291.9,-4.647,89.4,28.37776,0,862.9583,0,91.8,2.282,171,1.808,2.585,37.47526,1.322,51.6,59.03,33.69,35.45
"2017-01-19 15:30:00",271450,0.336,302,-4.718,90.1,26.13725,0,862.9904,0,91.7,2.283,170,1.794,2.538,35.82312,1.37,51.6,59.08,33.69,35.47
"2017-01-19 15:40:00",271451,0.202,290.3,-4.787,91.2,20.09057,0,863.2996,0,91.7,2.283,172,1.802,2.566,27.08926,1.35,51.6,59.03,33.69,35.45
"2017-01-19 15:50:00",271452,0.237,295.9,-4.81,91.9,17.42496,0,863.4415,0,91.5,2.285,170,1.801,2.577,23.57141,1.353,51.55,59.03,33.68,35.45
"2017-01-19 16:00:00",271453,0.123,358.2,-4.901,92.6,16.05283,0,863.3622,0,91.6,2.285,172,1.801,2.579,21.82006,1.359,51.55,59.03,33.68,35.45
"2017-01-19 16:10:00",271454,0.1,302.9,-4.963,93.2,14.48018,0,863.2002,0,91.5,2.286,171,1.801,2.579,20.03457,1.383,51.6,59.03,33.69,35.45
"2017-01-19 16:20:00",271455,0.161,315,-5.039,93.6,6.487184,0,863.2444,0,91.5,2.287,172,1.801,2.579,8.411866,1.282,51.55,59.08,33.68,35.47
"2017-01-19 16:30:00",271456,0.19,304.8,-5.222,94.9,4.238294,0,863.3329,0,91.5,2.287,173,1.794,2.579,5.356452,1.272,51.55,59.08,33.68,35.47
"2017-01-19 16:40:00",271457,0.094,286.5,-5.216,94.6,3.074548,0,863.4531,0,91.3,2.289,174,1.774,2.584,4.090332,1.328,51.55,59.03,33.68,35.45
"2017-01-19 16:50:00",271458,0.094,300.5,-5.422,96,2.005217,0,863.4531,0,91.3,2.29,174,1.773,2.61,2.395911,1.179,51.55,59.03,33.68,35.45
"2017-01-19 17:00:00",271459,0.256,353,-5.483,96.8,0.8100224,0,863.4705,0,91.3,2.291,174,1.799,2.67,0.8606322,1.061,51.55,59.08,33.68,35.47
"2017-01-19 17:10:00",271460,0.251,331.1,-5.6,98.1,0.3893091,0,863.5047,0,91.2,2.292,174,1.843,2.709,0.2692033,0.538,51.55,59.08,33.68,35.47
"2017-01-19 17:20:00",271461,0.084,292.7,-5.686,99.3,0,0,863.5303,0,91.1,2.293,174,1.866,2.721,0,0,51.55,59.03,33.68,35.45
"2017-01-19 17:30:00",271462,0.188,340.2,-5.668,99.8,0,0,863.4455,0,91,2.294,174,1.837,2.703,0,0,51.55,59.08,33.68,35.47
"2017-01-19 17:40:00",271463,0.163,205.9,-5.745,99.8,0,0,863.4163,0,91,2.295,174,1.813,2.667,0,0,51.55,59.03,33.68,35.45
"2017-01-19 17:50:00",271464,0.203,11.22,-5.862,100,0,0,863.3221,0,90.9,2.296,176,1.804,2.658,0,0,51.55,59.08,33.68,35.47
"2017-01-19 18:00:00",271465,0.159,14.97,-5.924,100,0,0,863.3243,0,90.9,2.296,174,1.803,2.633,0,0,51.6,59.03,33.69,35.45
"2017-01-19 18:10:00",271466,0.236,358.7,-6.095,100,0.003932969,0,863.4213,0,90.9,2.297,175,1.803,2.643,0,0,51.55,59.08,33.68,35.47
"2017-01-19 18:20:00",271467,0.135,48.96,-6.145,100,0,0,863.5414,0,90.7,2.299,172,1.804,2.607,0,0,51.55,59.08,33.68,35.47
"2017-01-19 18:30:00",271468,0.136,75.2,-6.113,100,0,0,863.5225,0,90.7,2.299,171,1.82,2.599,0,0,51.6,59.08,33.69,35.47
"2017-01-19 18:40:00",271469,0.139,30.88,-6.28,100,0.007865938,0,863.3181,0,90.6,2.301,171,1.83,2.611,0,0,51.6,59.08,33.69,35.47
"2017-01-19 18:50:00",271470,0.171,0.577,-6.383,100,0,0,863.2864,0,90.6,2.301,172,1.845,2.618,0,0,51.6,59.08,33.69,35.47
"2017-01-19 19:00:00",271471,0.192,22.33,-6.434,100,0,0,863.2906,0,90.4,2.303,170,1.846,2.623,0,0,51.6,59.03,33.69,35.45
"2017-01-19 19:10:00",271472,0.214,22.22,-6.46,100,0,0,863.2864,0,90.4,2.304,170,1.846,2.624,0,0,51.55,59.08,33.68,35.47
"2017-01-19 19:20:00",271473,0.316,0.946,-6.659,100,0.2281122,0,863.2527,0,90.4,2.304,171,1.846,2.623,0,0,51.55,59.08,33.68,35.47
"2017-01-19 19:30:00",271474,0.159,83.5,-6.63,100,0.06686047,0,863.2906,0,90.3,2.305,170,1.836,2.604,0,0,51.55,59.08,33.68,35.47
"2017-01-19 19:40:00",271475,0.083,106.5,-6.669,100,0.03146375,0,863.1957,0,90.2,2.307,170,1.841,2.588,0,0,51.6,59.08,33.69,35.47
"2017-01-19 19:50:00",271476,0.047,123.1,-6.744,100,0,0,862.9576,0,90.3,2.306,171,1.84,2.561,0,0,51.6,59.08,33.69,35.47
"2017-01-19 20:00:00",271477,0.159,166.6,-6.859,98.2,0,0,862.7848,0,90.1,2.308,171,1.844,2.549,0,0,51.55,59.08,33.68,35.47
"2017-01-19 20:10:00",271478,0.083,95.4,-7.057,96.4,0,0,862.5887,0,90.1,2.31,170,1.88,2.573,0,0,51.6,59.08,33.69,35.47
"2017-01-19 20:20:00",271479,0.157,103.8,-7.274,95.8,0,0,862.4328,0,90.2,2.309,171,1.893,2.614,0,0,51.6,59.08,33.69,35.47
"2017-01-19 20:30:00",271480,0.102,103.5,-7.378,96,0,0,862.1879,0,90,2.311,170,1.893,2.638,0,0,51.55,59.08,33.68,35.47
"2017-01-19 20:40:00",271481,0.309,135,-7.89,94.4,0,0,862.0259,0,90,2.316,174,1.873,2.651,0,0,51.6,59.08,33.69,35.47
"2017-01-19 20:50:00",271482,0.101,195.9,-8.51,93.4,0,0,861.8281,0,89.8,2.319,170,1.886,2.687,0,0,51.55,59.08,33.68,35.47
"2017-01-19 21:00:00",271483,0.016,248.3,-8.69,92.9,0,0,861.6962,0,89.4,2.324,180,1.89,2.708,0,0,51.6,59.08,33.69,35.47
"2017-01-19 21:10:00",271484,0,0,-9.17,91.9,0,0,861.6085,0,89.6,2.324,170,1.874,2.708,0,0,51.6,59.08,33.69,35.47
"2017-01-19 21:20:00",271485,0,0,-9.5,91.5,0,0,861.6097,0,89.5,2.326,170,1.854,2.653,0,0,51.6,59.08,33.69,35.47
"2017-01-19 21:30:00",271486,0,0,-9.54,92.8,0,0,861.61,0,89.4,2.327,170,1.878,2.663,0.04172768,0,51.55,59.08,33.68,35.47
"2017-01-19 21:40:00",271487,0.106,90.7,-9.27,94.5,0,0,861.6101,0,89.3,2.323,194,1.836,2.641,0.2958873,0,51.6,59.08,33.69,35.47
"2017-01-19 21:50:00",271488,0.297,4.755,-8.38,98,0,0,861.6101,0,89.3,2.322,170,1.813,2.608,2.059831,0,51.55,59.08,33.68,35.47
"2017-01-19 22:00:00",271489,0.386,24.07,-8.1,99.3,0,0,861.6101,0,89.5,2.319,170,1.818,2.597,1.980169,0,51.6,59.08,33.69,35.47
"2017-01-19 22:10:00",271490,0.299,248,-8.08,98.4,0,0,861.6185,0,89.3,2.323,170,1.795,2.574,1.308732,0,51.55,59.08,33.68,35.47
"2017-01-19 22:20:00",271491,0.196,186.9,-8.58,95.7,0,0,861.6101,0,89.4,2.324,170,1.789,2.572,0.1934649,0,51.55,59.08,33.68,35.47
"2017-01-19 22:30:00",271492,0.241,186.2,-8.49,96.9,0,0,861.6101,0,89.3,2.323,171,1.803,2.589,0.4817831,0,51.6,59.08,33.69,35.47
"2017-01-19 22:40:00",271493,0.151,233.6,-8.36,97,0,0,861.6134,0,89.2,2.324,170,1.814,2.604,0.2086507,0,51.55,59.08,33.68,35.47
"2017-01-19 22:50:00",271494,0.072,210.1,-8.62,95,0,0,861.6111,0,89.1,2.328,170,1.83,2.609,0.05311246,0,51.55,59.08,33.68,35.47
"2017-01-19 23:00:00",271495,0.152,170.8,-9.31,93,0,0,861.508,0,89.1,2.33,174,1.838,2.618,0,0,51.6,59.08,33.69,35.47
"2017-01-19 23:10:00",271496,0.108,195.3,-9.73,92.6,0,0,861.5978,0.5,89,2.333,170,1.857,2.629,0,0,51.55,59.08,33.68,35.47
"2017-01-19 23:20:00",271497,0.284,196.2,-10.16,91.8,0,0,861.5413,0,89.1,2.333,170,1.902,2.667,0,0,51.6,59.08,33.69,35.47
"2017-01-19 23:30:00",271498,0.046,200.9,-10.12,92.2,0,0,861.6461,0,88.9,2.335,170,1.921,2.698,0,0,51.6,59.08,33.69,35.47
"2017-01-19 23:40:00",271499,0.058,200.7,-10.25,91,0,0,861.6467,0,88.8,2.338,170,1.931,2.709,0.06450918,0,51.6,59.08,33.69,35.47
"2017-01-19 23:50:00",271500,0.177,200.7,-10.63,91.2,0,0,861.6927,0,88.9,2.337,170,1.934,2.713,0.09486765,0,51.55,59.08,33.68,35.47
